Date String (YYYY-MM-DD hh:mm:ss) UTC,Instrument flags,absolute air pressure of the measurement (hPa),sample flow rate (lpm),inlet stack bypass flow (lpm),air temperature of the measurement (°C),ambient temperature measured by the external sensor (°C),aerosol sample conditioner tube jacket temperature (°C),OPC LED temperature (°C),internal box temperature (°C),relative humidity of the measurement (%),span deviation,mass concentration of particles derived from Lorenz-Mie calculation of OPC scattering (μg/m³),mass concentration of particles derived from Lorenz-Mie calculation of OPC scattering (μg/m³),mass concentration of particles derived from Lorenz-Mie calculation of OPC scattering (μg/m³)
DateTimeUTC,F1_M11,P_M11,Q1_M11,Q2_M11,T1_M11,T2_M11,T3_M11,T4_M11,T5_M11,U1_M11,ZSPAN_M11,X0_M11,X2_M11,X1_M11
2024-05-08 13:00:00,SystemResetWarning,0819.2,5.00,000.00,020.0,019.4,000.0,028.3,021.6,010.7,0000.0,0004.35,0001.54,0000.72
2024-05-08 13:01:00,SystemResetWarning,0819.4,5.01,000.00,020.0,019.4,000.0,028.3,021.6,010.9,0000.0,0004.48,0001.57,0000.72
2024-05-08 13:02:00,SystemResetWarning,0819.3,5.01,000.00,020.0,019.4,000.0,028.3,021.6,011.1,0000.0,0004.53,0001.57,0000.72
2024-05-08 13:03:00,SystemResetWarning,0819.3,5.00,000.00,020.0,019.4,000.0,028.3,021.6,011.1,0000.0,0004.57,0001.58,0000.72
2024-05-08 13:04:00,SystemResetWarning,0819.3,4.99,000.00,020.0,019.4,000.0,028.3,021.6,011.0,0000.0,0004.61,0001.58,0000.72
2024-05-08 13:05:00,SystemResetWarning,0819.3,4.99,000.00,020.0,019.4,000.0,028.2,021.7,011.0,0000.0,0004.74,0001.59,0000.71
2024-05-08 13:06:00,SystemResetWarning,0819.3,5.00,000.00,020.0,019.4,000.0,028.2,021.7,010.8,0000.0,0004.78,0001.57,0000.71
2024-05-08 13:07:00,SystemResetWarning,0819.2,5.00,000.00,020.0,019.4,000.0,028.2,021.6,010.8,0000.0,0004.58,0001.54,0000.71
2024-05-08 13:08:00,SystemResetWarning,0819.1,5.00,000.00,020.1,019.4,000.0,028.2,021.7,010.8,0000.0,0004.52,0001.49,0000.70
2024-05-08 13:09:00,SystemResetWarning,0819.2,5.01,000.00,020.1,019.4,000.0,028.2,021.7,010.8,0000.0,0005.32,0001.44,0000.70
2024-05-08 13:10:00,SystemResetWarning,0819.2,5.01,000.00,020.1,019.4,000.0,028.2,021.7,010.9,0000.0,0004.34,0001.41,0000.70
2024-05-08 13:11:00,SystemResetWarning,0819.2,5.00,000.00,020.1,019.4,000.0,028.2,021.6,010.9,0000.0,0004.56,0001.39,0000.70
2024-05-08 13:12:00,SystemResetWarning,0819.3,4.99,000.00,020.0,019.4,000.0,028.2,021.6,010.9,0000.0,0004.45,0001.36,0000.69
2024-05-08 13:13:00,SystemResetWarning,0819.3,4.99,000.00,020.0,019.4,000.0,028.2,021.6,010.9,0000.0,0004.28,0001.31,0000.69
2024-05-08 13:14:00,SystemResetWarning,0819.3,5.00,000.00,020.0,019.4,000.0,028.2,021.6,011.0,0000.0,0004.35,0001.34,0000.69
2024-05-08 13:15:00,SystemResetWarning,0819.3,5.01,000.00,020.0,019.4,000.0,028.2,021.6,010.9,0000.0,0004.30,0001.33,0000.70
2024-05-08 13:16:00,SystemResetWarning,0819.3,5.02,000.00,020.0,019.4,000.0,028.2,021.6,011.0,0000.0,0004.11,0001.29,0000.70
2024-05-08 13:17:00,SystemResetWarning,0819.3,5.00,000.00,020.0,019.4,000.0,028.2,021.6,011.0,0000.0,0004.02,0001.28,0000.71
2024-05-08 13:18:00,SystemResetWarning,0819.3,5.00,000.00,020.0,019.4,000.0,028.2,021.6,011.1,0000.0,0004.14,0001.29,0000.70
2024-05-08 13:19:00,SystemResetWarning,0819.3,5.00,000.00,020.0,019.4,000.0,028.2,021.6,011.1,0000.0,0004.07,0001.26,0000.71
2024-05-08 13:20:00,SystemResetWarning,0819.3,5.00,000.00,020.0,019.5,000.0,028.2,021.6,011.1,0000.0,0003.60,0001.28,0000.70
2024-05-08 13:21:00,SystemResetWarning,0819.4,5.01,000.00,020.0,019.5,000.0,028.2,021.7,011.2,0000.0,0003.12,0001.26,0000.69
2024-05-08 13:22:00,SystemResetWarning,0819.4,5.00,000.00,020.0,019.5,000.0,028.2,021.6,011.2,0000.0,0002.71,0001.25,0000.69
2024-05-08 13:23:00,SystemResetWarning,0819.3,5.00,000.00,020.0,019.5,000.0,028.2,021.6,011.1,0000.0,0002.60,0001.21,0000.68
2024-05-08 13:24:00,SystemResetWarning,0819.3,4.99,000.00,020.0,019.5,000.0,028.2,021.6,011.2,0000.0,0002.80,0001.22,0000.68
2024-05-08 13:25:00,SystemResetWarning,0819.3,5.00,000.00,020.0,019.5,000.0,028.2,021.6,011.0,0000.0,0002.72,0001.17,0000.66
2024-05-08 13:26:00,SystemResetWarning,0819.3,5.00,000.00,020.1,019.5,000.0,028.2,021.6,010.8,0000.0,0002.89,0001.18,0000.66
2024-05-08 13:27:00,SystemResetWarning,0819.4,5.00,000.00,020.1,019.5,000.0,028.2,021.6,010.8,0000.0,0002.91,0001.17,0000.66
2024-05-08 13:28:00,SystemResetWarning,0819.3,5.01,000.00,020.1,019.5,000.0,028.2,021.7,011.1,0000.0,0002.90,0001.17,0000.65
2024-05-08 13:29:00,SystemResetWarning,0819.3,5.00,000.00,020.1,019.5,000.0,028.2,021.7,011.2,0000.0,0004.10,0001.14,0000.66
2024-05-08 13:30:00,SystemResetWarning,0819.3,5.01,000.00,020.1,019.5,000.0,028.2,021.7,010.8,0000.0,0004.45,0001.18,0000.66
2024-05-08 13:31:00,SystemResetWarning,0819.3,5.00,000.00,020.1,019.5,000.0,028.2,021.7,010.8,0000.0,0004.33,0001.16,0000.67
2024-05-08 13:32:00,SystemResetWarning,0819.3,5.00,000.00,020.1,019.5,000.0,028.3,021.7,010.9,0000.0,0004.27,0001.16,0000.67
2024-05-08 13:33:00,SystemResetWarning,0819.3,5.00,000.00,020.1,019.5,000.0,028.3,021.7,011.1,0000.0,0004.27,0001.15,0000.67
2024-05-08 13:34:00,SystemResetWarning,0819.3,5.00,000.00,020.1,019.5,000.0,028.3,021.7,010.9,0000.0,0004.62,0001.17,0000.67
2024-05-08 13:35:00,SystemResetWarning,0819.3,5.00,000.00,020.1,019.5,000.0,028.3,021.7,011.0,0000.0,0004.86,0001.18,0000.68
2024-05-08 13:36:00,SystemResetWarning,0819.3,4.99,000.00,020.1,019.5,000.0,028.3,021.7,011.2,0000.0,0004.85,0001.20,0000.68
2024-05-08 13:37:00,SystemResetWarning,0819.3,4.99,000.00,020.1,019.5,000.0,028.3,021.7,011.1,0000.0,0004.67,0001.18,0000.69
2024-05-08 13:38:00,SystemResetWarning,0819.3,5.00,000.00,020.1,019.5,000.0,028.3,021.7,010.8,0000.0,0004.68,0001.19,0000.69
2024-05-08 13:39:00,SystemResetWarning,0819.3,5.02,000.00,020.1,019.5,000.0,028.3,021.7,010.7,0000.0,0004.67,0001.21,0000.69
2024-05-08 13:40:00,SystemResetWarning,0819.3,4.99,000.00,020.1,019.5,000.0,028.3,021.7,010.9,0000.0,0003.50,0001.22,0000.69
2024-05-08 13:41:00,SystemResetWarning,0819.3,4.99,000.00,020.1,019.5,000.0,028.3,021.7,010.8,0000.0,0003.44,0001.18,0000.68
2024-05-08 13:42:00,SystemResetWarning,0819.3,4.99,000.00,020.1,019.6,000.0,028.3,021.7,010.4,0000.0,0003.37,0001.16,0000.68
2024-05-08 13:43:00,SystemResetWarning,0819.3,5.00,000.00,020.1,019.6,000.0,028.3,021.8,010.6,0000.0,0003.36,0001.17,0000.68
2024-05-08 13:44:00,SystemResetWarning,0819.3,5.01,000.00,020.1,019.6,000.0,028.3,021.8,010.5,0000.0,0003.30,0001.16,0000.69
2024-05-08 13:45:00,SystemResetWarning,0819.2,5.01,000.00,020.1,019.6,000.0,028.3,021.8,009.9,0000.0,0003.05,0001.14,0000.67
2024-05-08 13:46:00,SystemResetWarning,0819.3,4.99,000.00,020.1,019.6,000.0,028.3,021.7,009.8,0000.0,0002.51,0001.11,0000.68
2024-05-08 13:47:00,SystemResetWarning,0819.3,4.99,000.00,020.2,019.6,000.0,028.3,021.7,009.9,0000.0,0002.61,0001.14,0000.68
2024-05-08 13:48:00,SystemResetWarning,0819.3,5.01,000.00,020.2,019.6,000.0,028.3,021.7,010.1,0000.0,0002.73,0001.17,0000.70
2024-05-08 13:49:00,SystemResetWarning,0819.3,5.01,000.00,020.2,019.6,000.0,028.3,021.7,010.0,0000.0,0002.82,0001.19,0000.70
2024-05-08 13:50:00,SystemResetWarning,0819.3,4.98,000.00,020.2,019.6,000.0,028.3,021.7,010.2,0000.0,0002.73,0001.14,0000.70
2024-05-08 13:51:00,SystemResetWarning,0819.4,4.99,000.00,020.2,019.6,000.0,028.3,021.7,010.0,0000.0,0002.63,0001.10,0000.69
2024-05-08 13:52:00,SystemResetWarning,0819.4,5.00,000.00,020.2,019.6,000.0,028.3,021.8,010.0,0000.0,0002.37,0001.11,0000.70
2024-05-08 13:53:00,SystemResetWarning,0819.3,5.00,000.00,020.2,019.6,000.0,028.3,021.8,010.3,0000.0,0002.82,0001.14,0000.69
2024-05-08 13:54:00,SystemResetWarning,0819.3,5.00,000.00,020.2,019.6,000.0,028.3,021.7,010.4,0000.0,0003.59,0001.15,0000.68
2024-05-08 13:55:00,SystemResetWarning,0819.3,5.00,000.00,020.2,019.6,000.0,028.3,021.7,010.2,0000.0,0003.88,0001.17,0000.68
2024-05-08 13:56:00,SystemResetWarning,0819.4,5.00,000.00,020.2,019.6,000.0,028.3,021.8,010.3,0000.0,0004.10,0001.21,0000.70
2024-05-08 13:57:00,SystemResetWarning,0819.3,5.00,000.00,020.2,019.6,000.0,028.3,021.7,010.5,0000.0,0004.11,0001.21,0000.69
2024-05-08 13:58:00,SystemResetWarning,0819.4,5.00,000.00,020.2,019.6,000.0,028.3,021.7,010.6,0000.0,0004.03,0001.16,0000.69
2024-05-08 13:59:00,SystemResetWarning,0819.3,5.00,000.00,020.2,019.6,000.0,028.3,021.8,010.6,0000.0,0003.96,0001.14,0000.67
